Zurück zum Katalog

FENGYUN 2A

AktivWetterMEO
NORAD 24834·PAYLOAD·🇨🇳 China

Gestartet Jun 10, 1997 von Xichang Satellite Launch Center

Loading…

Nächste Überflüge (nächste 24 Stunden)

TLE

AktuellSource: Space-Track

Epoche: Sep 14, 2026, 15:06 UTC

1 24834U 97029A   26257.62931603 -.00000270  00000-0  00000-0 0  9990
2 24834  15.6977   5.4412 0105113 240.2269 123.8683  0.96051918104263

Verfolge FENGYUN 2A in Echtzeit mit AllMySat

Download on the App Store